20050104,000014,2193,32.707145,-117.236748,NaN,NaN,NaN,NaN
20050104,000048,2227,32.707146,-117.236750,NaN,NaN,NaN,NaN
20050104,000114,2253,32.707143,-117.236747,NaN,NaN,NaN,NaN
20050104,000148,2286,32.707146,-117.236743,NaN,NaN,NaN,NaN
20050104,000214,2312,32.707140,-117.236747,NaN,NaN,NaN,NaN
20050104,000249,2347,32.707141,-117.236743,NaN,NaN,NaN,NaN
20050104,000314,2373,32.707136,-117.236740,NaN,NaN,NaN,NaN
20050104,000349,2407,32.707143,-117.236742,NaN,NaN,NaN,NaN
20050104,000414,2432,32.707138,-117.236740,NaN,NaN,NaN,NaN
20050104,000448,2466,32.707138,-117.236738,NaN,NaN,NaN,NaN
20050104,000514,2492,32.707135,-117.236740,NaN,NaN,NaN,NaN
20050104,000548,2527,32.707130,-117.236743,NaN,NaN,NaN,NaN
20050104,000614,2553,32.707138,-117.236740,NaN,NaN,NaN,NaN
20050104,000648,2586,32.707133,-117.236737,NaN,NaN,NaN,NaN
20050104,000714,2612,32.707143,-117.236740,NaN,NaN,NaN,NaN
20050104,000749,2648,32.707135,-117.236737,NaN,NaN,NaN,NaN
20050104,000814,2672,32.707138,-117.236738,NaN,NaN,NaN,NaN
20050104,000849,2707,32.707145,-117.236743,NaN,NaN,NaN,NaN
20050104,000914,2733,32.707135,-117.236742,NaN,NaN,NaN,NaN
20050104,000949,2768,32.707133,-117.236742,NaN,NaN,NaN,NaN
20050104,001014,2792,32.707143,-117.236742,NaN,NaN,NaN,NaN
20050104,001049,2827,32.707143,-117.236735,NaN,NaN,NaN,NaN
20050104,001115,2853,32.707143,-117.236742,NaN,NaN,NaN,NaN
20050104,001150,2889,32.707140,-117.236740,NaN,NaN,NaN,NaN
20050104,001215,2913,32.707141,-117.236742,NaN,NaN,NaN,NaN
20050104,001249,2948,32.707143,-117.236738,NaN,NaN,NaN,NaN
20050104,001315,2974,32.707145,-117.236738,NaN,NaN,NaN,NaN
20050104,001349,3007,32.707141,-117.236740,NaN,NaN,NaN,NaN
20050104,001415,3033,32.707138,-117.236743,NaN,NaN,NaN,NaN
20050104,001449,3067,32.707140,-117.236743,NaN,NaN,NaN,NaN
20050104,001515,3093,32.707143,-117.236742,NaN,NaN,NaN,NaN
20050104,001549,3128,32.707140,-117.236738,NaN,NaN,NaN,NaN
20050104,001615,3154,32.707146,-117.236738,NaN,NaN,NaN,NaN
20050104,001649,3187,32.707140,-117.236738,NaN,NaN,NaN,NaN
20050104,001715,3213,32.707141,-117.236737,NaN,NaN,NaN,NaN
20050104,001749,3247,32.707145,-117.236738,NaN,NaN,NaN,NaN
20050104,001815,3273,32.707141,-117.236737,NaN,NaN,NaN,NaN
20050104,001849,3308,32.707145,-117.236740,NaN,NaN,NaN,NaN
20050104,001915,3334,32.707143,-117.236737,NaN,NaN,NaN,NaN
20050104,001949,3367,32.707143,-117.236735,NaN,NaN,NaN,NaN
20050104,002015,3393,32.707145,-117.236733,NaN,NaN,NaN,NaN
20050104,002049,3428,32.707148,-117.236735,NaN,NaN,NaN,NaN
20050104,002115,3454,32.707146,-117.236733,NaN,NaN,NaN,NaN
20050104,002149,3488,32.707146,-117.236730,NaN,NaN,NaN,NaN
20050104,002216,3514,32.707143,-117.236733,NaN,NaN,NaN,NaN
20050104,002250,3549,32.707140,-117.236733,NaN,NaN,NaN,NaN
20050104,002316,3575,32.707140,-117.236735,NaN,NaN,NaN,NaN
20050104,002349,3608,32.707141,-117.236737,NaN,NaN,NaN,NaN
20050104,002416,3634,32.707141,-117.236738,NaN,NaN,NaN,NaN
20050104,002450,3669,32.707138,-117.236738,NaN,NaN,NaN,NaN
20050104,002516,3695,32.707143,-117.236735,NaN,NaN,NaN,NaN
20050104,002549,3727,32.707138,-117.236723,NaN,NaN,NaN,NaN
20050104,002616,3755,32.707145,-117.236727,NaN,NaN,NaN,NaN
20050104,002649,3788,32.707140,-117.236728,NaN,NaN,NaN,NaN
20050104,002716,3814,32.707143,-117.236730,NaN,NaN,NaN,NaN
20050104,002750,3849,32.707140,-117.236730,NaN,NaN,NaN,NaN
20050104,002816,3875,32.707140,-117.236733,NaN,NaN,NaN,NaN
20050104,002850,3909,32.707143,-117.236737,NaN,NaN,NaN,NaN
20050104,002916,3935,32.707143,-117.236728,NaN,NaN,NaN,NaN
20050104,002950,3968,32.707141,-117.236732,NaN,NaN,NaN,NaN
20050104,003016,3994,32.707146,-117.236733,NaN,NaN,NaN,NaN
20050104,003050,4029,32.707143,-117.236735,NaN,NaN,NaN,NaN
20050104,003116,4055,32.707141,-117.236740,NaN,NaN,NaN,NaN
20050104,003150,4088,32.707138,-117.236752,NaN,NaN,NaN,NaN
20050104,003216,4114,32.707150,-117.236743,NaN,NaN,NaN,NaN
20050104,003250,4148,32.707143,-117.236742,NaN,NaN,NaN,NaN
20050104,003316,4174,32.707146,-117.236742,NaN,NaN,NaN,NaN
20050104,003350,4209,32.707140,-117.236737,NaN,NaN,NaN,NaN
20050104,003416,4235,32.707141,-117.236737,NaN,NaN,NaN,NaN
20050104,003450,4268,32.707138,-117.236735,NaN,NaN,NaN,NaN
20050104,003516,4294,32.707140,-117.236738,NaN,NaN,NaN,NaN
20050104,003550,4328,32.707133,-117.236738,NaN,NaN,NaN,NaN
20050104,003616,4354,32.707140,-117.236738,NaN,NaN,NaN,NaN
20050104,003650,4389,32.707141,-117.236738,NaN,NaN,NaN,NaN
20050104,003716,4415,32.707140,-117.236737,NaN,NaN,NaN,NaN
20050104,003750,4448,32.707135,-117.236740,NaN,NaN,NaN,NaN
20050104,003816,4474,32.707135,-117.236732,NaN,NaN,NaN,NaN
20050104,003850,4508,32.707135,-117.236737,NaN,NaN,NaN,NaN
20050104,003917,4535,32.707138,-117.236733,NaN,NaN,NaN,NaN
20050104,003950,4569,32.707141,-117.236738,NaN,NaN,NaN,NaN
20050104,004017,4595,32.707143,-117.236735,NaN,NaN,NaN,NaN
20050104,004050,4628,32.707136,-117.236732,NaN,NaN,NaN,NaN
20050104,004117,4656,32.707141,-117.236738,NaN,NaN,NaN,NaN
20050104,004150,4689,32.707140,-117.236738,NaN,NaN,NaN,NaN
20050104,004217,4715,32.707135,-117.236737,NaN,NaN,NaN,NaN
20050104,004250,4749,32.707135,-117.236733,NaN,NaN,NaN,NaN
20050104,004317,4775,32.707133,-117.236735,NaN,NaN,NaN,NaN
20050104,004351,4810,32.707145,-117.236737,NaN,NaN,NaN,NaN
20050104,004417,4836,32.707140,-117.236735,NaN,NaN,NaN,NaN
20050104,004452,4871,32.707143,-117.236733,NaN,NaN,NaN,NaN
20050104,004517,4895,32.707143,-117.236735,NaN,NaN,NaN,NaN
20050104,004551,4930,32.707151,-117.236735,NaN,NaN,NaN,NaN
20050104,004617,4956,32.707151,-117.236738,NaN,NaN,NaN,NaN
20050104,004651,4990,32.707150,-117.236735,NaN,NaN,NaN,NaN
20050104,004717,5016,32.707150,-117.236737,NaN,NaN,NaN,NaN
20050104,004751,5049,32.707143,-117.236732,NaN,NaN,NaN,NaN
20050104,004817,5075,32.707150,-117.236735,NaN,NaN,NaN,NaN
20050104,004851,5110,32.707146,-117.236740,NaN,NaN,NaN,NaN
20050104,004917,5136,32.707150,-117.236738,NaN,NaN,NaN,NaN
20050104,004951,5170,32.707153,-117.236737,NaN,NaN,NaN,NaN
20050104,005017,5196,32.707155,-117.236737,NaN,NaN,NaN,NaN
20050104,005051,5229,32.707148,-117.236742,NaN,NaN,NaN,NaN
20050104,005117,5255,32.707161,-117.236743,NaN,NaN,NaN,NaN
20050104,005152,5290,32.707151,-117.236733,NaN,NaN,NaN,NaN
20050104,005217,5316,32.707158,-117.236738,NaN,NaN,NaN,NaN
20050104,005251,5349,32.707151,-117.236732,NaN,NaN,NaN,NaN
20050104,005318,5377,32.707135,-117.236733,NaN,NaN,NaN,NaN
20050104,005351,5409,32.707158,-117.236763,NaN,NaN,NaN,NaN
20050104,005418,5437,32.707160,-117.236765,NaN,NaN,NaN,NaN
20050104,005451,5470,32.707158,-117.236758,NaN,NaN,NaN,NaN
20050104,005518,5496,32.707146,-117.236722,NaN,NaN,NaN,NaN
20050104,005551,5529,32.707161,-117.236750,NaN,NaN,NaN,NaN
20050104,005618,5557,32.707165,-117.236743,NaN,NaN,NaN,NaN
20050104,005651,5589,32.707161,-117.236750,NaN,NaN,NaN,NaN
20050104,005718,5616,32.707138,-117.236733,NaN,NaN,NaN,NaN
20050104,005752,5650,32.707133,-117.236733,NaN,NaN,NaN,NaN
20050104,005818,5676,32.707156,-117.236757,NaN,NaN,NaN,NaN
20050104,005852,5711,32.707135,-117.236722,NaN,NaN,NaN,NaN
20050104,005918,5737,32.707136,-117.236723,NaN,NaN,NaN,NaN
20050104,005952,5770,32.707138,-117.236722,NaN,NaN,NaN,NaN
20050104,010018,5796,32.707135,-117.236725,NaN,NaN,NaN,NaN
20050104,010053,5832,32.707141,-117.236728,NaN,NaN,NaN,NaN
20050104,010118,5856,32.707136,-117.236730,NaN,NaN,NaN,NaN
20050104,010152,5891,32.707136,-117.236730,NaN,NaN,NaN,NaN
20050104,010218,5917,32.707138,-117.236727,NaN,NaN,NaN,NaN
20050104,010252,5950,32.707138,-117.236730,NaN,NaN,NaN,NaN
20050104,010318,5976,32.707136,-117.236732,NaN,NaN,NaN,NaN
20050104,010352,6010,32.707141,-117.236733,NaN,NaN,NaN,NaN
20050104,010418,6036,32.707131,-117.236723,NaN,NaN,NaN,NaN
20050104,010452,6071,32.707136,-117.236723,NaN,NaN,NaN,NaN
20050104,010518,6097,32.707138,-117.236725,NaN,NaN,NaN,NaN
20050104,010552,6130,32.707138,-117.236722,NaN,NaN,NaN,NaN
20050104,010618,6156,32.707133,-117.236720,NaN,NaN,NaN,NaN
20050104,010652,6191,32.707141,-117.236727,NaN,NaN,NaN,NaN
20050104,010718,6217,32.707138,-117.236737,NaN,NaN,NaN,NaN
20050104,010752,6251,32.707133,-117.236727,NaN,NaN,NaN,NaN
20050104,010818,6277,32.707131,-117.236727,NaN,NaN,NaN,NaN
20050104,010852,6310,32.707136,-117.236727,NaN,NaN,NaN,NaN
20050104,010918,6336,32.707136,-117.236728,NaN,NaN,NaN,NaN
20050104,010952,6371,32.707138,-117.236730,NaN,NaN,NaN,NaN
20050104,011018,6397,32.707138,-117.236730,NaN,NaN,NaN,NaN
20050104,011052,6431,32.707140,-117.236730,NaN,NaN,NaN,NaN
20050104,011118,6457,32.707135,-117.236725,NaN,NaN,NaN,NaN
20050104,011152,6490,32.707140,-117.236733,NaN,NaN,NaN,NaN
20050104,011218,6516,32.707141,-117.236733,NaN,NaN,NaN,NaN
20050104,011252,6551,32.707138,-117.236730,NaN,NaN,NaN,NaN
20050104,011318,6577,32.707133,-117.236723,NaN,NaN,NaN,NaN
20050104,011352,6610,32.707140,-117.236730,NaN,NaN,NaN,NaN
20050104,011418,6636,32.707143,-117.236738,NaN,NaN,NaN,NaN
20050104,011452,6670,32.707141,-117.236732,NaN,NaN,NaN,NaN
20050104,011519,6698,32.707133,-117.236727,NaN,NaN,NaN,NaN
20050104,011552,6731,32.707140,-117.236733,NaN,NaN,NaN,NaN
20050104,011619,6757,32.707140,-117.236738,NaN,NaN,NaN,NaN
20050104,011653,6792,32.707141,-117.236738,NaN,NaN,NaN,NaN
20050104,011719,6818,32.707135,-117.236732,NaN,NaN,NaN,NaN
20050104,011753,6851,32.707136,-117.236732,NaN,NaN,NaN,NaN
20050104,011819,6877,32.707135,-117.236735,NaN,NaN,NaN,NaN
20050104,011853,6911,32.707133,-117.236733,NaN,NaN,NaN,NaN
20050104,011919,6937,32.707136,-117.236732,NaN,NaN,NaN,NaN
20050104,011953,6972,32.707136,-117.236727,NaN,NaN,NaN,NaN
20050104,012019,6998,32.707136,-117.236727,NaN,NaN,NaN,NaN
20050104,012053,7031,32.707135,-117.236730,NaN,NaN,NaN,NaN
20050104,012119,7057,32.707135,-117.236725,NaN,NaN,NaN,NaN
20050104,012153,7091,32.707133,-117.236730,NaN,NaN,NaN,NaN
20050104,012219,7117,32.707138,-117.236730,NaN,NaN,NaN,NaN
20050104,012253,7152,32.707140,-117.236732,NaN,NaN,NaN,NaN
20050104,012319,7178,32.707136,-117.236730,NaN,NaN,NaN,NaN
20050104,012353,7211,32.707141,-117.236733,NaN,NaN,NaN,NaN
20050104,012419,7237,32.707136,-117.236732,NaN,NaN,NaN,NaN
20050104,012453,7271,32.707140,-117.236732,NaN,NaN,NaN,NaN
20050104,012519,7297,32.707138,-117.236737,NaN,NaN,NaN,NaN
20050104,012553,7332,32.707138,-117.236737,NaN,NaN,NaN,NaN
20050104,012619,7358,32.707133,-117.236738,NaN,NaN,NaN,NaN
20050104,012653,7391,32.707133,-117.236737,NaN,NaN,NaN,NaN
20050104,012719,7417,32.707135,-117.236730,NaN,NaN,NaN,NaN
20050104,012753,7452,32.707136,-117.236732,NaN,NaN,NaN,NaN
20050104,012819,7478,32.707140,-117.236738,NaN,NaN,NaN,NaN
20050104,012853,7512,32.707138,-117.236737,NaN,NaN,NaN,NaN
20050104,012919,7538,32.707133,-117.236738,NaN,NaN,NaN,NaN
20050104,012954,7573,32.707133,-117.236738,NaN,NaN,NaN,NaN
20050104,013020,7599,32.707131,-117.236740,NaN,NaN,NaN,NaN
20050104,013053,7632,32.707133,-117.236735,NaN,NaN,NaN,NaN
20050104,013120,7658,32.707135,-117.236737,NaN,NaN,NaN,NaN
20050104,013153,7692,32.707136,-117.236737,NaN,NaN,NaN,NaN
20050104,013220,7719,32.707131,-117.236738,NaN,NaN,NaN,NaN
20050104,013254,7753,32.707131,-117.236742,NaN,NaN,NaN,NaN
20050104,013320,7779,32.707131,-117.236738,NaN,NaN,NaN,NaN
20050104,013353,7812,32.707135,-117.236737,NaN,NaN,NaN,NaN
20050104,013420,7838,32.707135,-117.236738,NaN,NaN,NaN,NaN
20050104,013453,7871,32.707133,-117.236740,NaN,NaN,NaN,NaN
20050104,013520,7899,32.707133,-117.236738,NaN,NaN,NaN,NaN
20050104,013554,7933,32.707131,-117.236737,NaN,NaN,NaN,NaN
20050104,013620,7959,32.707135,-117.236738,NaN,NaN,NaN,NaN
20050104,013654,7992,32.707133,-117.236738,NaN,NaN,NaN,NaN
20050104,013720,8018,32.707125,-117.236763,NaN,NaN,NaN,NaN
20050104,013754,8053,32.707125,-117.236760,NaN,NaN,NaN,NaN
20050104,013820,8079,32.707125,-117.236753,NaN,NaN,NaN,NaN
20050104,013854,8112,32.707128,-117.236747,NaN,NaN,NaN,NaN
20050104,013920,8138,32.707135,-117.236742,NaN,NaN,NaN,NaN
20050104,013954,8172,32.707131,-117.236740,NaN,NaN,NaN,NaN
20050104,014020,8198,32.707130,-117.236740,NaN,NaN,NaN,NaN
20050104,014054,8233,32.707126,-117.236738,NaN,NaN,NaN,NaN
20050104,014120,8259,32.707130,-117.236740,NaN,NaN,NaN,NaN
20050104,014154,8292,32.707126,-117.236747,NaN,NaN,NaN,NaN
20050104,014220,8318,32.707131,-117.236752,NaN,NaN,NaN,NaN
20050104,014254,8352,32.707131,-117.236750,NaN,NaN,NaN,NaN
20050104,014320,8378,32.707130,-117.236748,NaN,NaN,NaN,NaN
20050104,014354,8413,32.707126,-117.236752,NaN,NaN,NaN,NaN
20050104,014420,8439,32.707130,-117.236755,NaN,NaN,NaN,NaN
20050104,014454,8472,32.707131,-117.236753,NaN,NaN,NaN,NaN
20050104,014520,8498,32.707131,-117.236753,NaN,NaN,NaN,NaN
20050104,014554,8532,32.707131,-117.236753,NaN,NaN,NaN,NaN
20050104,014620,8558,32.707136,-117.236748,NaN,NaN,NaN,NaN
20050104,014654,8593,32.707133,-117.236745,NaN,NaN,NaN,NaN
20050104,014720,8619,32.707131,-117.236742,NaN,NaN,NaN,NaN
20050104,014754,8652,32.707130,-117.236738,NaN,NaN,NaN,NaN
20050104,014820,8678,32.707128,-117.236737,NaN,NaN,NaN,NaN
20050104,014854,8713,32.707133,-117.236740,NaN,NaN,NaN,NaN
20050104,014920,8739,32.707133,-117.236738,NaN,NaN,NaN,NaN
20050104,014954,8773,32.707133,-117.236740,NaN,NaN,NaN,NaN
20050104,015020,8799,32.707135,-117.236737,NaN,NaN,NaN,NaN
20050104,015055,8834,32.707133,-117.236737,NaN,NaN,NaN,NaN
20050104,015121,8860,32.707131,-117.236732,NaN,NaN,NaN,NaN
20050104,015154,8893,32.707135,-117.236733,NaN,NaN,NaN,NaN
20050104,015221,8919,32.707138,-117.236737,NaN,NaN,NaN,NaN
20050104,015255,8953,32.707136,-117.236738,NaN,NaN,NaN,NaN
20050104,015321,8980,32.707138,-117.236737,NaN,NaN,NaN,NaN
20050104,015355,9014,32.707135,-117.236737,NaN,NaN,NaN,NaN
20050104,015421,9040,32.707130,-117.236733,NaN,NaN,NaN,NaN
20050104,015455,9073,32.707130,-117.236733,NaN,NaN,NaN,NaN
20050104,015521,9099,32.707131,-117.236735,NaN,NaN,NaN,NaN
20050104,015555,9134,32.707135,-117.236738,NaN,NaN,NaN,NaN
20050104,015621,9160,32.707135,-117.236740,NaN,NaN,NaN,NaN
20050104,015655,9194,32.707135,-117.236742,NaN,NaN,NaN,NaN
20050104,015721,9220,32.707136,-117.236745,NaN,NaN,NaN,NaN
20050104,015755,9253,32.707143,-117.236752,NaN,NaN,NaN,NaN
20050104,015821,9279,32.707140,-117.236750,NaN,NaN,NaN,NaN
20050104,015855,9314,32.707131,-117.236752,NaN,NaN,NaN,NaN
20050104,015921,9340,32.707126,-117.236752,NaN,NaN,NaN,NaN
20050104,015955,9373,32.707121,-117.236747,NaN,NaN,NaN,NaN
20050104,020021,9399,32.707118,-117.236743,NaN,NaN,NaN,NaN
20050104,020055,9433,32.707121,-117.236742,NaN,NaN,NaN,NaN
20050104,020121,9459,32.707135,-117.236747,NaN,NaN,NaN,NaN
20050104,020155,9494,32.707136,-117.236743,NaN,NaN,NaN,NaN
20050104,020221,9520,32.707133,-117.236743,NaN,NaN,NaN,NaN
20050104,020255,9553,32.707133,-117.236745,NaN,NaN,NaN,NaN
20050104,020321,9579,32.707126,-117.236740,NaN,NaN,NaN,NaN
20050104,020356,9615,32.707120,-117.236737,NaN,NaN,NaN,NaN
20050104,020422,9641,32.707123,-117.236738,NaN,NaN,NaN,NaN
20050104,020455,9674,32.707130,-117.236747,NaN,NaN,NaN,NaN
20050104,020522,9700,32.707131,-117.236747,NaN,NaN,NaN,NaN
20050104,020555,9733,32.707128,-117.236745,NaN,NaN,NaN,NaN
20050104,020622,9761,32.707130,-117.236745,NaN,NaN,NaN,NaN
20050104,020656,9794,32.707128,-117.236743,NaN,NaN,NaN,NaN
20050104,020722,9820,32.707130,-117.236742,NaN,NaN,NaN,NaN
20050104,020756,9854,32.707123,-117.236742,NaN,NaN,NaN,NaN
20050104,020822,9880,32.707128,-117.236745,NaN,NaN,NaN,NaN
20050104,020856,9915,32.707128,-117.236750,NaN,NaN,NaN,NaN
20050104,020922,9941,32.707128,-117.236752,NaN,NaN,NaN,NaN
20050104,020956,9974,32.707133,-117.236750,NaN,NaN,NaN,NaN
20050104,021022,10000,32.707130,-117.236747,NaN,NaN,NaN,NaN
20050104,021056,10034,32.707125,-117.236742,NaN,NaN,NaN,NaN
20050104,021122,10060,32.707126,-117.236738,NaN,NaN,NaN,NaN
20050104,021156,10095,32.707121,-117.236738,NaN,NaN,NaN,NaN
20050104,021222,10121,32.707123,-117.236740,NaN,NaN,NaN,NaN
20050104,021256,10154,32.707126,-117.236740,NaN,NaN,NaN,NaN
20050104,021322,10180,32.707128,-117.236738,NaN,NaN,NaN,NaN
20050104,021356,10214,32.707128,-117.236742,NaN,NaN,NaN,NaN
20050104,021422,10241,32.707130,-117.236747,NaN,NaN,NaN,NaN
20050104,021456,10275,32.707128,-117.236745,NaN,NaN,NaN,NaN
20050104,021522,10301,32.707133,-117.236745,NaN,NaN,NaN,NaN
20050104,021556,10334,32.707136,-117.236743,NaN,NaN,NaN,NaN
20050104,021622,10360,32.707128,-117.236745,NaN,NaN,NaN,NaN
20050104,021656,10395,32.707128,-117.236745,NaN,NaN,NaN,NaN
20050104,021722,10421,32.707128,-117.236748,NaN,NaN,NaN,NaN
20050104,021756,10455,32.707130,-117.236748,NaN,NaN,NaN,NaN
20050104,021822,10481,32.707128,-117.236747,NaN,NaN,NaN,NaN
20050104,021856,10514,32.707130,-117.236747,NaN,NaN,NaN,NaN
20050104,021922,10540,32.707133,-117.236747,NaN,NaN,NaN,NaN
20050104,021956,10575,32.707136,-117.236747,NaN,NaN,NaN,NaN
20050104,022022,10601,32.707136,-117.236748,NaN,NaN,NaN,NaN
20050104,022056,10634,32.707138,-117.236747,NaN,NaN,NaN,NaN
20050104,022122,10660,32.707136,-117.236747,NaN,NaN,NaN,NaN
20050104,022156,10694,32.707135,-117.236745,NaN,NaN,NaN,NaN
20050104,022222,10720,32.707131,-117.236742,NaN,NaN,NaN,NaN
20050104,022256,10755,32.707128,-117.236742,NaN,NaN,NaN,NaN
20050104,022322,10781,32.707128,-117.236738,NaN,NaN,NaN,NaN
20050104,022356,10814,32.707125,-117.236738,NaN,NaN,NaN,NaN
20050104,022423,10842,32.707126,-117.236738,NaN,NaN,NaN,NaN
20050104,022456,10874,32.707128,-117.236743,NaN,NaN,NaN,NaN
20050104,022523,10901,32.707128,-117.236737,NaN,NaN,NaN,NaN
20050104,022556,10935,32.707130,-117.236742,NaN,NaN,NaN,NaN
20050104,022623,10961,32.707133,-117.236748,NaN,NaN,NaN,NaN
20050104,022657,10996,32.707131,-117.236745,NaN,NaN,NaN,NaN
20050104,022723,11022,32.707126,-117.236740,NaN,NaN,NaN,NaN
20050104,022758,11057,32.707125,-117.236745,NaN,NaN,NaN,NaN
20050104,022823,11081,32.707125,-117.236743,NaN,NaN,NaN,NaN
20050104,022857,11115,32.707126,-117.236742,NaN,NaN,NaN,NaN
20050104,022923,11141,32.707123,-117.236742,NaN,NaN,NaN,NaN
20050104,022957,11176,32.707123,-117.236748,NaN,NaN,NaN,NaN
20050104,023023,11202,32.707123,-117.236745,NaN,NaN,NaN,NaN
20050104,023057,11235,32.707123,-117.236742,NaN,NaN,NaN,NaN
20050104,023123,11261,32.707120,-117.236747,NaN,NaN,NaN,NaN
20050104,023158,11296,32.707125,-117.236742,NaN,NaN,NaN,NaN
20050104,023223,11321,32.707128,-117.236737,NaN,NaN,NaN,NaN
20050104,023257,11356,32.707130,-117.236745,NaN,NaN,NaN,NaN
20050104,023323,11382,32.707131,-117.236747,NaN,NaN,NaN,NaN
20050104,023357,11415,32.707133,-117.236745,NaN,NaN,NaN,NaN
20050104,023423,11441,32.707135,-117.236745,NaN,NaN,NaN,NaN
20050104,023457,11475,32.707136,-117.236748,NaN,NaN,NaN,NaN
20050104,023523,11502,32.707136,-117.236743,NaN,NaN,NaN,NaN
20050104,023558,11536,32.707135,-117.236748,NaN,NaN,NaN,NaN
20050104,023623,11562,32.707131,-117.236752,NaN,NaN,NaN,NaN
20050104,023657,11595,32.707133,-117.236745,NaN,NaN,NaN,NaN
20050104,023723,11621,32.707131,-117.236747,NaN,NaN,NaN,NaN
20050104,023757,11656,32.707130,-117.236747,NaN,NaN,NaN,NaN
20050104,023823,11682,32.707130,-117.236745,NaN,NaN,NaN,NaN
20050104,023858,11716,32.707135,-117.236748,NaN,NaN,NaN,NaN
20050104,023923,11742,32.707140,-117.236748,NaN,NaN,NaN,NaN
20050104,023958,11777,32.707140,-117.236750,NaN,NaN,NaN,NaN
20050104,024023,11801,32.707140,-117.236747,NaN,NaN,NaN,NaN
20050104,024058,11836,32.707140,-117.236747,NaN,NaN,NaN,NaN
20050104,024124,11862,32.707136,-117.236745,NaN,NaN,NaN,NaN
20050104,024158,11897,32.707138,-117.236745,NaN,NaN,NaN,NaN
20050104,024224,11923,32.707136,-117.236742,NaN,NaN,NaN,NaN
20050104,024258,11957,32.707136,-117.236738,NaN,NaN,NaN,NaN
20050104,024324,11983,32.707136,-117.236735,NaN,NaN,NaN,NaN
20050104,024358,12016,32.707133,-117.236740,NaN,NaN,NaN,NaN
20050104,024424,12042,32.707130,-117.236738,NaN,NaN,NaN,NaN
20050104,024458,12077,32.707128,-117.236738,NaN,NaN,NaN,NaN
20050104,024524,12103,32.707128,-117.236742,NaN,NaN,NaN,NaN
20050104,024558,12137,32.707128,-117.236742,NaN,NaN,NaN,NaN
20050104,024624,12162,32.707126,-117.236737,NaN,NaN,NaN,NaN
20050104,024658,12196,32.707131,-117.236743,NaN,NaN,NaN,NaN
20050104,024724,12222,32.707130,-117.236743,NaN,NaN,NaN,NaN
20050104,024758,12257,32.707131,-117.236742,NaN,NaN,NaN,NaN
20050104,024824,12283,32.707133,-117.236743,NaN,NaN,NaN,NaN
20050104,024858,12316,32.707133,-117.236743,NaN,NaN,NaN,NaN
20050104,024924,12342,32.707133,-117.236743,NaN,NaN,NaN,NaN
20050104,024958,12376,32.707131,-117.236740,NaN,NaN,NaN,NaN
20050104,025024,12402,32.707130,-117.236742,NaN,NaN,NaN,NaN
20050104,025058,12437,32.707130,-117.236738,NaN,NaN,NaN,NaN
20050104,025124,12463,32.707131,-117.236733,NaN,NaN,NaN,NaN
20050104,025158,12496,32.707130,-117.236735,NaN,NaN,NaN,NaN
20050104,025224,12522,32.707130,-117.236738,NaN,NaN,NaN,NaN
20050104,025258,12556,32.707133,-117.236738,NaN,NaN,NaN,NaN
20050104,025324,12582,32.707131,-117.236738,NaN,NaN,NaN,NaN
20050104,025358,12617,32.707135,-117.236740,NaN,NaN,NaN,NaN
20050104,025424,12643,32.707131,-117.236740,NaN,NaN,NaN,NaN
20050104,025458,12676,32.707135,-117.236738,NaN,NaN,NaN,NaN
20050104,025524,12702,32.707133,-117.236742,NaN,NaN,NaN,NaN
20050104,025558,12737,32.707133,-117.236740,NaN,NaN,NaN,NaN
20050104,025624,12763,32.707130,-117.236737,NaN,NaN,NaN,NaN
20050104,025659,12797,32.707125,-117.236733,NaN,NaN,NaN,NaN
20050104,025724,12823,32.707126,-117.236732,NaN,NaN,NaN,NaN
20050104,025800,12858,32.707128,-117.236733,NaN,NaN,NaN,NaN
20050104,025825,12884,32.707130,-117.236733,NaN,NaN,NaN,NaN
20050104,025859,12917,32.707126,-117.236732,NaN,NaN,NaN,NaN
20050104,025925,12943,32.707123,-117.236732,NaN,NaN,NaN,NaN
20050104,030000,12978,32.707125,-117.236732,NaN,NaN,NaN,NaN
20050104,030025,13003,32.707126,-117.236727,NaN,NaN,NaN,NaN
20050104,030059,13038,32.707126,-117.236730,NaN,NaN,NaN,NaN
20050104,030125,13064,32.707126,-117.236732,NaN,NaN,NaN,NaN
20050104,030200,13099,32.707123,-117.236735,NaN,NaN,NaN,NaN
20050104,030225,13123,32.707126,-117.236735,NaN,NaN,NaN,NaN
20050104,030300,13158,32.707128,-117.236742,NaN,NaN,NaN,NaN
20050104,030325,13184,32.707130,-117.236737,NaN,NaN,NaN,NaN
20050104,030359,13218,32.707128,-117.236737,NaN,NaN,NaN,NaN
20050104,030425,13244,32.707131,-117.236738,NaN,NaN,NaN,NaN
20050104,030459,13277,32.707133,-117.236735,NaN,NaN,NaN,NaN
20050104,030525,13303,32.707133,-117.236738,NaN,NaN,NaN,NaN
20050104,030559,13338,32.707133,-117.236735,NaN,NaN,NaN,NaN
20050104,030625,13364,32.707133,-117.236733,NaN,NaN,NaN,NaN
20050104,030700,13398,32.707133,-117.236735,NaN,NaN,NaN,NaN
20050104,030725,13423,32.707133,-117.236738,NaN,NaN,NaN,NaN
20050104,030800,13459,32.707133,-117.236738,NaN,NaN,NaN,NaN
20050104,030825,13483,32.707133,-117.236738,NaN,NaN,NaN,NaN
20050104,030859,13518,32.707131,-117.236738,NaN,NaN,NaN,NaN
20050104,030925,13544,32.707128,-117.236737,NaN,NaN,NaN,NaN
20050104,030959,13577,32.707126,-117.236735,NaN,NaN,NaN,NaN
20050104,031025,13603,32.707121,-117.236732,NaN,NaN,NaN,NaN
20050104,031059,13637,32.707120,-117.236727,NaN,NaN,NaN,NaN
20050104,031125,13663,32.707120,-117.236730,NaN,NaN,NaN,NaN
20050104,031159,13698,32.707120,-117.236732,NaN,NaN,NaN,NaN
20050104,031225,13724,32.707126,-117.236755,NaN,NaN,NaN,NaN
20050104,031259,13757,32.707128,-117.236753,NaN,NaN,NaN,NaN
20050104,031325,13783,32.707118,-117.236745,NaN,NaN,NaN,NaN
20050104,031400,13818,32.707121,-117.236742,NaN,NaN,NaN,NaN
20050104,031425,13843,32.707123,-117.236742,NaN,NaN,NaN,NaN
20050104,031500,13878,32.707125,-117.236742,NaN,NaN,NaN,NaN
20050104,031526,13904,32.707123,-117.236723,NaN,NaN,NaN,NaN
20050104,031600,13939,32.707121,-117.236727,NaN,NaN,NaN,NaN
20050104,031625,13963,32.707120,-117.236730,NaN,NaN,NaN,NaN
20050104,031700,13998,32.707120,-117.236732,NaN,NaN,NaN,NaN
20050104,031725,14024,32.707125,-117.236732,NaN,NaN,NaN,NaN
20050104,031800,14058,32.707128,-117.236730,NaN,NaN,NaN,NaN
20050104,031826,14084,32.707126,-117.236728,NaN,NaN,NaN,NaN